Voltar ao catálogo

STARLINK-3986

AtivoComunicaçõesVLEO
NORAD 52623·PAYLOAD·🇺🇸 United States

Lançado May 14, 2022 de Cape Canaveral Space Force Station

Loading…

Próximas Passagens (próximas 24 horas)

TLE

AtualizadoSource: CelesTrak SupGP

Época: Sep 15, 2026, 01:19 UTC

1 52623C 22052AB  26258.05534722  .00045453  00000+0  13004-2 0  2588
2 52623  53.1580 127.6821 0001293  79.9528  80.6919 15.35376661    11

Acompanhe STARLINK-3986 em tempo real com AllMySat

Download on the App Store